Location: Guadanolo
(41.9167°N, 12.9333°E)
Time: 12:47:21
(UTC+00:00)

ATLAS 2AS CENTAUR R/B - Pass Details

Date: 16 September 2019
Orbit: 919 x 1292 km, 63.6° (Epoch: 21 September)

Event Time Altitude Azimuth Distance (km) Brightness Sun altitude
Rises 18:21:50 0° 325° (NW) 4,212 6.7 -12.7°
Reaches altitude 10° 18:24:47 10° 330° (NNW) 3,205 5.9 -13.3°
Maximum altitude 18:32:24 60° 49° (NE) 1,315 3.0 -14.6°
Enters shadow 18:37:25 20° 124° (SE) 2,295 3.9 -15.5°
